owner,sensor,date,latitude,longitude,sea_surface_height_above_sea_level,qcFlag 
COMPS,ioos:station:USF.COMPS:FHP:1,2017-02-01T05:12:00Z,28.1530,-82.8010,-9.999,1111122 
COMPS,ioos:station:USF.COMPS:FHP:1,2017-02-01T05:18:00Z,28.1530,-82.8010,-9.983,1111122 
COMPS,ioos:station:USF.COMPS:FHP:1,2017-02-01T05:24:00Z,28.1530,-82.8010,-9.968,1111122 
COMPS,ioos:station:USF.COMPS:FHP:1,2017-02-01T05:30:00Z,28.1530,-82.8010,-9.951,1111122 
COMPS,ioos:station:USF.COMPS:FHP:1,2017-02-01T05:36:00Z,28.1530,-82.8010,-9.938,1111122 
COMPS,ioos:station:USF.COMPS:FHP:1,2017-02-01T05:42:00Z,28.1530,-82.8010,-9.922,1111122 
COMPS,ioos:station:USF.COMPS:FHP:1,2017-02-01T05:48:00Z,28.1530,-82.8010,-9.916,1111122 
COMPS,ioos:station:USF.COMPS:FHP:1,2017-02-01T05:54:00Z,28.1530,-82.8010,-9.905,1111122 
COMPS,ioos:station:USF.COMPS:FHP:1,2017-02-01T06:00:00Z,28.1530,-82.8010,-9.894,1111122 
COMPS,ioos:station:USF.COMPS:FHP:1,2017-02-01T06:06:00Z,28.1530,-82.8010,-9.885,1111122 
COMPS,ioos:station:USF.COMPS:FHP:1,2017-02-01T06:12:00Z,28.1530,-82.8010,-9.876,1111122 
COMPS,ioos:station:USF.COMPS:FHP:1,2017-02-01T06:18:00Z,28.1530,-82.8010,-9.865,1111122 
COMPS,ioos:station:USF.COMPS:FHP:1,2017-02-01T06:24:00Z,28.1530,-82.8010,-9.861,1111122 
COMPS,ioos:station:USF.COMPS:FHP:1,2017-02-01T06:30:00Z,28.1530,-82.8010,-9.851,1111122 
COMPS,ioos:station:USF.COMPS:FHP:1,2017-02-01T06:42:00Z,28.1530,-82.8010,-9.843,1111122 
COMPS,ioos:station:USF.COMPS:FHP:1,2017-02-01T06:48:00Z,28.1530,-82.8010,-9.837,1111122 
COMPS,ioos:station:USF.COMPS:FHP:1,2017-02-01T06:54:00Z,28.1530,-82.8010,-9.835,1111122 
COMPS,ioos:station:USF.COMPS:FHP:1,2017-02-01T07:00:00Z,28.1530,-82.8010,-9.835,1111122 
COMPS,ioos:station:USF.COMPS:FHP:1,2017-02-01T07:06:00Z,28.1530,-82.8010,-9.838,1111122 
COMPS,ioos:station:USF.COMPS:FHP:1,2017-02-01T07:12:00Z,28.1530,-82.8010,-9.835,1111122 
COMPS,ioos:station:USF.COMPS:FHP:1,2017-02-01T07:18:00Z,28.1530,-82.8010,-9.841,1111122 
COMPS,ioos:station:USF.COMPS:FHP:1,2017-02-01T07:24:00Z,28.1530,-82.8010,-9.837,1111122 
COMPS,ioos:station:USF.COMPS:FHP:1,2017-02-01T07:30:00Z,28.1530,-82.8010,-9.844,1111122 
COMPS,ioos:station:USF.COMPS:FHP:1,2017-02-01T07:42:00Z,28.1530,-82.8010,-9.848,1111122 
COMPS,ioos:station:USF.COMPS:FHP:1,2017-02-01T07:48:00Z,28.1530,-82.8010,-9.849,1111122 
COMPS,ioos:station:USF.COMPS:FHP:1,2017-02-01T07:54:00Z,28.1530,-82.8010,-9.852,1111122 
COMPS,ioos:station:USF.COMPS:FHP:1,2017-02-01T08:00:00Z,28.1530,-82.8010,-9.856,1111122 
COMPS,ioos:station:USF.COMPS:FHP:1,2017-02-01T08:18:00Z,28.1530,-82.8010,-9.88,1111122 
COMPS,ioos:station:USF.COMPS:FHP:1,2017-02-01T08:36:00Z,28.1530,-82.8010,-9.902,1111122 
COMPS,ioos:station:USF.COMPS:FHP:1,2017-02-01T08:42:00Z,28.1530,-82.8010,-9.91,1111122 
COMPS,ioos:station:USF.COMPS:FHP:1,2017-02-01T08:48:00Z,28.1530,-82.8010,-9.922,1111122 
COMPS,ioos:station:USF.COMPS:FHP:1,2017-02-01T08:54:00Z,28.1530,-82.8010,-9.936,1111122 
COMPS,ioos:station:USF.COMPS:FHP:1,2017-02-01T09:00:00Z,28.1530,-82.8010,-9.943,1111122 
COMPS,ioos:station:USF.COMPS:FHP:1,2017-02-01T09:06:00Z,28.1530,-82.8010,-9.952,1111122 
COMPS,ioos:station:USF.COMPS:FHP:1,2017-02-01T09:12:00Z,28.1530,-82.8010,-9.971,1111122 
COMPS,ioos:station:USF.COMPS:FHP:1,2017-02-01T09:18:00Z,28.1530,-82.8010,-9.981,1111122 
COMPS,ioos:station:USF.COMPS:FHP:1,2017-02-01T09:24:00Z,28.1530,-82.8010,-9.995,1111122 
COMPS,ioos:station:USF.COMPS:FHP:1,2017-02-01T18:24:00Z,28.1530,-82.8010,-9.984,1111122 
COMPS,ioos:station:USF.COMPS:FHP:1,2017-02-01T18:30:00Z,28.1530,-82.8010,-9.969,1111122 
COMPS,ioos:station:USF.COMPS:FHP:1,2017-02-01T18:36:00Z,28.1530,-82.8010,-9.956,1111122 
COMPS,ioos:station:USF.COMPS:FHP:1,2017-02-01T18:42:00Z,28.1530,-82.8010,-9.942,1111122 
COMPS,ioos:station:USF.COMPS:FHP:1,2017-02-01T18:48:00Z,28.1530,-82.8010,-9.929,1111122 
COMPS,ioos:station:USF.COMPS:FHP:1,2017-02-01T18:54:00Z,28.1530,-82.8010,-9.91,1111122 
COMPS,ioos:station:USF.COMPS:FHP:1,2017-02-01T19:00:00Z,28.1530,-82.8010,-9.901,1111122 
COMPS,ioos:station:USF.COMPS:FHP:1,2017-02-01T19:06:00Z,28.1530,-82.8010,-9.885,1111122 
COMPS,ioos:station:USF.COMPS:FHP:1,2017-02-01T19:12:00Z,28.1530,-82.8010,-9.878,1111122 
COMPS,ioos:station:USF.COMPS:FHP:1,2017-02-01T19:18:00Z,28.1530,-82.8010,-9.874,1111122 
COMPS,ioos:station:USF.COMPS:FHP:1,2017-02-01T19:24:00Z,28.1530,-82.8010,-9.864,1111122 
COMPS,ioos:station:USF.COMPS:FHP:1,2017-02-01T19:30:00Z,28.1530,-82.8010,-9.864,1111122 
COMPS,ioos:station:USF.COMPS:FHP:1,2017-02-01T19:36:00Z,28.1530,-82.8010,-9.851,1111122 
COMPS,ioos:station:USF.COMPS:FHP:1,2017-02-01T19:42:00Z,28.1530,-82.8010,-9.845,1111122 
COMPS,ioos:station:USF.COMPS:FHP:1,2017-02-01T19:48:00Z,28.1530,-82.8010,-9.84,1111122 
COMPS,ioos:station:USF.COMPS:FHP:1,2017-02-01T19:54:00Z,28.1530,-82.8010,-9.84,1111122 
COMPS,ioos:station:USF.COMPS:FHP:1,2017-02-01T20:00:00Z,28.1530,-82.8010,-9.844,1111122 
COMPS,ioos:station:USF.COMPS:FHP:1,2017-02-01T20:06:00Z,28.1530,-82.8010,-9.847,1111122 
COMPS,ioos:station:USF.COMPS:FHP:1,2017-02-01T20:12:00Z,28.1530,-82.8010,-9.851,1111122 
COMPS,ioos:station:USF.COMPS:FHP:1,2017-02-01T20:18:00Z,28.1530,-82.8010,-9.854,1111122 
COMPS,ioos:station:USF.COMPS:FHP:1,2017-02-01T20:24:00Z,28.1530,-82.8010,-9.847,1111122 
COMPS,ioos:station:USF.COMPS:FHP:1,2017-02-01T20:30:00Z,28.1530,-82.8010,-9.847,1111122 
COMPS,ioos:station:USF.COMPS:FHP:1,2017-02-01T20:36:00Z,28.1530,-82.8010,-9.849,1111122 
COMPS,ioos:station:USF.COMPS:FHP:1,2017-02-01T20:42:00Z,28.1530,-82.8010,-9.857,1111122 
COMPS,ioos:station:USF.COMPS:FHP:1,2017-02-01T20:48:00Z,28.1530,-82.8010,-9.867,1111122 
COMPS,ioos:station:USF.COMPS:FHP:1,2017-02-01T20:54:00Z,28.1530,-82.8010,-9.871,1111122 
COMPS,ioos:station:USF.COMPS:FHP:1,2017-02-01T21:00:00Z,28.1530,-82.8010,-9.873,1111122 
COMPS,ioos:station:USF.COMPS:FHP:1,2017-02-01T21:06:00Z,28.1530,-82.8010,-9.879,1111122 
COMPS,ioos:station:USF.COMPS:FHP:1,2017-02-01T21:12:00Z,28.1530,-82.8010,-9.878,1111122 
COMPS,ioos:station:USF.COMPS:FHP:1,2017-02-01T21:18:00Z,28.1530,-82.8010,-9.888,1111122 
COMPS,ioos:station:USF.COMPS:FHP:1,2017-02-01T21:24:00Z,28.1530,-82.8010,-9.901,1111122 
COMPS,ioos:station:USF.COMPS:FHP:1,2017-02-01T21:30:00Z,28.1530,-82.8010,-9.913,1111122 
COMPS,ioos:station:USF.COMPS:FHP:1,2017-02-01T21:36:00Z,28.1530,-82.8010,-9.922,1111122 
COMPS,ioos:station:USF.COMPS:FHP:1,2017-02-01T21:42:00Z,28.1530,-82.8010,-9.932,1111122 
COMPS,ioos:station:USF.COMPS:FHP:1,2017-02-01T21:48:00Z,28.1530,-82.8010,-9.942,1111122 
COMPS,ioos:station:USF.COMPS:FHP:1,2017-02-01T21:54:00Z,28.1530,-82.8010,-9.953,1111122 
COMPS,ioos:station:USF.COMPS:FHP:1,2017-02-01T22:00:00Z,28.1530,-82.8010,-9.959,1111122 
COMPS,ioos:station:USF.COMPS:FHP:1,2017-02-01T22:06:00Z,28.1530,-82.8010,-9.975,1111122 
COMPS,ioos:station:USF.COMPS:FHP:1,2017-02-01T22:12:00Z,28.1530,-82.8010,-9.987,1111122 
COMPS,ioos:station:USF.COMPS:FHP:1,2017-02-02T06:42:00Z,28.1530,-82.8010,-9.994,1111122 
COMPS,ioos:station:USF.COMPS:FHP:1,2017-02-02T06:48:00Z,28.1530,-82.8010,-9.988,1111122 
COMPS,ioos:station:USF.COMPS:FHP:1,2017-02-02T07:06:00Z,28.1530,-82.8010,-9.973,1111122 
COMPS,ioos:station:USF.COMPS:FHP:1,2017-02-02T07:12:00Z,28.1530,-82.8010,-9.966,1111122 
COMPS,ioos:station:USF.COMPS:FHP:1,2017-02-02T07:18:00Z,28.1530,-82.8010,-9.96,1111122 
COMPS,ioos:station:USF.COMPS:FHP:1,2017-02-02T07:24:00Z,28.1530,-82.8010,-9.954,1111122 
COMPS,ioos:station:USF.COMPS:FHP:1,2017-02-02T07:30:00Z,28.1530,-82.8010,-9.95,1111122 
COMPS,ioos:station:USF.COMPS:FHP:1,2017-02-02T07:36:00Z,28.1530,-82.8010,-9.953,1111122 
COMPS,ioos:station:USF.COMPS:FHP:1,2017-02-02T07:42:00Z,28.1530,-82.8010,-9.948,1111122 
COMPS,ioos:station:USF.COMPS:FHP:1,2017-02-02T07:48:00Z,28.1530,-82.8010,-9.949,1111122 
COMPS,ioos:station:USF.COMPS:FHP:1,2017-02-02T07:54:00Z,28.1530,-82.8010,-9.951,1111122 
COMPS,ioos:station:USF.COMPS:FHP:1,2017-02-02T08:00:00Z,28.1530,-82.8010,-9.951,1111122 
COMPS,ioos:station:USF.COMPS:FHP:1,2017-02-02T08:06:00Z,28.1530,-82.8010,-9.956,1111122 
COMPS,ioos:station:USF.COMPS:FHP:1,2017-02-02T08:18:00Z,28.1530,-82.8010,-9.963,1111122 
COMPS,ioos:station:USF.COMPS:FHP:1,2017-02-02T08:24:00Z,28.1530,-82.8010,-9.96,1111122 
COMPS,ioos:station:USF.COMPS:FHP:1,2017-02-02T08:30:00Z,28.1530,-82.8010,-9.961,1111122 
COMPS,ioos:station:USF.COMPS:FHP:1,2017-02-02T08:36:00Z,28.1530,-82.8010,-9.955,1111122 
COMPS,ioos:station:USF.COMPS:FHP:1,2017-02-02T08:48:00Z,28.1530,-82.8010,-9.967,1111122 
COMPS,ioos:station:USF.COMPS:FHP:1,2017-02-02T08:54:00Z,28.1530,-82.8010,-9.963,1111122 
COMPS,ioos:station:USF.COMPS:FHP:1,2017-02-02T09:00:00Z,28.1530,-82.8010,-9.973,1111122 
COMPS,ioos:station:USF.COMPS:FHP:1,2017-02-02T09:06:00Z,28.1530,-82.8010,-9.957,1111122 
COMPS,ioos:station:USF.COMPS:FHP:1,2017-02-02T09:24:00Z,28.1530,-82.8010,-9.981,1111122 
COMPS,ioos:station:USF.COMPS:FHP:1,2017-02-02T09:30:00Z,28.1530,-82.8010,-9.992,1111122 
COMPS,ioos:station:USF.COMPS:FHP:1,2017-02-02T09:36:00Z,28.1530,-82.8010,-9.994,1111122 
COMPS,ioos:station:USF.COMPS:FHP:1,2017-02-02T09:42:00Z,28.1530,-82.8010,-9.997,1111122 
COMPS,ioos:station:USF.COMPS:FHP:1,2017-02-02T18:54:00Z,28.1530,-82.8010,-9.996,1111122 
COMPS,ioos:station:USF.COMPS:FHP:1,2017-02-02T19:00:00Z,28.1530,-82.8010,-9.976,1111122 
COMPS,ioos:station:USF.COMPS:FHP:1,2017-02-02T19:06:00Z,28.1530,-82.8010,-9.961,1111122 
COMPS,ioos:station:USF.COMPS:FHP:1,2017-02-02T19:12:00Z,28.1530,-82.8010,-9.946,1111122 
COMPS,ioos:station:USF.COMPS:FHP:1,2017-02-02T19:18:00Z,28.1530,-82.8010,-9.939,1111122 
COMPS,ioos:station:USF.COMPS:FHP:1,2017-02-02T19:24:00Z,28.1530,-82.8010,-9.926,1111122 
COMPS,ioos:station:USF.COMPS:FHP:1,2017-02-02T19:30:00Z,28.1530,-82.8010,-9.916,1111122 
COMPS,ioos:station:USF.COMPS:FHP:1,2017-02-02T19:36:00Z,28.1530,-82.8010,-9.901,1111122 
COMPS,ioos:station:USF.COMPS:FHP:1,2017-02-02T19:42:00Z,28.1530,-82.8010,-9.895,1111122 
COMPS,ioos:station:USF.COMPS:FHP:1,2017-02-02T19:48:00Z,28.1530,-82.8010,-9.888,1111122 
COMPS,ioos:station:USF.COMPS:FHP:1,2017-02-02T19:54:00Z,28.1530,-82.8010,-9.885,1111122 
COMPS,ioos:station:USF.COMPS:FHP:1,2017-02-02T20:00:00Z,28.1530,-82.8010,-9.871,1111122 
COMPS,ioos:station:USF.COMPS:FHP:1,2017-02-02T20:06:00Z,28.1530,-82.8010,-9.867,1111122 
COMPS,ioos:station:USF.COMPS:FHP:1,2017-02-02T20:12:00Z,28.1530,-82.8010,-9.857,1111122 
COMPS,ioos:station:USF.COMPS:FHP:1,2017-02-02T20:18:00Z,28.1530,-82.8010,-9.858,1111122 
COMPS,ioos:station:USF.COMPS:FHP:1,2017-02-02T20:24:00Z,28.1530,-82.8010,-9.844,1111122 
COMPS,ioos:station:USF.COMPS:FHP:1,2017-02-02T20:30:00Z,28.1530,-82.8010,-9.849,1111122 
COMPS,ioos:station:USF.COMPS:FHP:1,2017-02-02T20:36:00Z,28.1530,-82.8010,-9.848,1111122 
COMPS,ioos:station:USF.COMPS:FHP:1,2017-02-02T20:42:00Z,28.1530,-82.8010,-9.861,1111122 
COMPS,ioos:station:USF.COMPS:FHP:1,2017-02-02T20:48:00Z,28.1530,-82.8010,-9.846,1111122 
COMPS,ioos:station:USF.COMPS:FHP:1,2017-02-02T20:54:00Z,28.1530,-82.8010,-9.854,1111122 
COMPS,ioos:station:USF.COMPS:FHP:1,2017-02-02T21:00:00Z,28.1530,-82.8010,-9.858,1111122 
COMPS,ioos:station:USF.COMPS:FHP:1,2017-02-02T21:06:00Z,28.1530,-82.8010,-9.854,1111122 
COMPS,ioos:station:USF.COMPS:FHP:1,2017-02-02T21:12:00Z,28.1530,-82.8010,-9.869,1111122 
COMPS,ioos:station:USF.COMPS:FHP:1,2017-02-02T21:18:00Z,28.1530,-82.8010,-9.871,1111122 
COMPS,ioos:station:USF.COMPS:FHP:1,2017-02-02T21:24:00Z,28.1530,-82.8010,-9.871,1111122 
COMPS,ioos:station:USF.COMPS:FHP:1,2017-02-02T21:30:00Z,28.1530,-82.8010,-9.888,1111122 
COMPS,ioos:station:USF.COMPS:FHP:1,2017-02-02T21:36:00Z,28.1530,-82.8010,-9.878,1111122 
COMPS,ioos:station:USF.COMPS:FHP:1,2017-02-02T21:42:00Z,28.1530,-82.8010,-9.88,1111122 
COMPS,ioos:station:USF.COMPS:FHP:1,2017-02-02T21:48:00Z,28.1530,-82.8010,-9.874,1111122 
COMPS,ioos:station:USF.COMPS:FHP:1,2017-02-02T21:54:00Z,28.1530,-82.8010,-9.889,1111122 
COMPS,ioos:station:USF.COMPS:FHP:1,2017-02-02T22:00:00Z,28.1530,-82.8010,-9.89,1111122 
COMPS,ioos:station:USF.COMPS:FHP:1,2017-02-02T22:06:00Z,28.1530,-82.8010,-9.906,1111122 
COMPS,ioos:station:USF.COMPS:FHP:1,2017-02-02T22:12:00Z,28.1530,-82.8010,-9.919,1111122 
COMPS,ioos:station:USF.COMPS:FHP:1,2017-02-02T22:18:00Z,28.1530,-82.8010,-9.939,1111122 
COMPS,ioos:station:USF.COMPS:FHP:1,2017-02-02T22:24:00Z,28.1530,-82.8010,-9.956,1111122 
COMPS,ioos:station:USF.COMPS:FHP:1,2017-02-02T22:30:00Z,28.1530,-82.8010,-9.952,1111122 
COMPS,ioos:station:USF.COMPS:FHP:1,2017-02-02T22:36:00Z,28.1530,-82.8010,-9.98,1111122 
COMPS,ioos:station:USF.COMPS:FHP:1,2017-02-02T22:42:00Z,28.1530,-82.8010,-9.986,1111122 
COMPS,ioos:station:USF.COMPS:FHP:1,2017-02-02T22:48:00Z,28.1530,-82.8010,-9.992,1111122 
COMPS,ioos:station:USF.COMPS:FHP:1,2017-02-03T19:12:00Z,28.1530,-82.8010,-9.993,1111122 
COMPS,ioos:station:USF.COMPS:FHP:1,2017-02-03T19:18:00Z,28.1530,-82.8010,-9.985,1111122 
COMPS,ioos:station:USF.COMPS:FHP:1,2017-02-03T19:24:00Z,28.1530,-82.8010,-9.973,1111122 
COMPS,ioos:station:USF.COMPS:FHP:1,2017-02-03T19:30:00Z,28.1530,-82.8010,-9.964,1111122 
COMPS,ioos:station:USF.COMPS:FHP:1,2017-02-03T19:36:00Z,28.1530,-82.8010,-9.956,1111122 
COMPS,ioos:station:USF.COMPS:FHP:1,2017-02-03T19:42:00Z,28.1530,-82.8010,-9.947,1111122 
COMPS,ioos:station:USF.COMPS:FHP:1,2017-02-03T19:48:00Z,28.1530,-82.8010,-9.933,1111122 
COMPS,ioos:station:USF.COMPS:FHP:1,2017-02-03T19:54:00Z,28.1530,-82.8010,-9.922,1111122 
COMPS,ioos:station:USF.COMPS:FHP:1,2017-02-03T20:00:00Z,28.1530,-82.8010,-9.909,1111122 
COMPS,ioos:station:USF.COMPS:FHP:1,2017-02-03T20:06:00Z,28.1530,-82.8010,-9.904,1111122 
COMPS,ioos:station:USF.COMPS:FHP:1,2017-02-03T20:12:00Z,28.1530,-82.8010,-9.896,1111122 
COMPS,ioos:station:USF.COMPS:FHP:1,2017-02-03T20:18:00Z,28.1530,-82.8010,-9.891,1111122 
COMPS,ioos:station:USF.COMPS:FHP:1,2017-02-03T20:24:00Z,28.1530,-82.8010,-9.883,1111122 
COMPS,ioos:station:USF.COMPS:FHP:1,2017-02-03T20:30:00Z,28.1530,-82.8010,-9.877,1111122 
COMPS,ioos:station:USF.COMPS:FHP:1,2017-02-03T20:36:00Z,28.1530,-82.8010,-9.871,1111122 
COMPS,ioos:station:USF.COMPS:FHP:1,2017-02-03T20:42:00Z,28.1530,-82.8010,-9.871,1111122 
COMPS,ioos:station:USF.COMPS:FHP:1,2017-02-03T20:48:00Z,28.1530,-82.8010,-9.864,1111122 
COMPS,ioos:station:USF.COMPS:FHP:1,2017-02-03T20:54:00Z,28.1530,-82.8010,-9.865,1111122 
COMPS,ioos:station:USF.COMPS:FHP:1,2017-02-03T21:00:00Z,28.1530,-82.8010,-9.86,1111122 
COMPS,ioos:station:USF.COMPS:FHP:1,2017-02-03T21:06:00Z,28.1530,-82.8010,-9.85,1111122 
COMPS,ioos:station:USF.COMPS:FHP:1,2017-02-03T21:12:00Z,28.1530,-82.8010,-9.847,1111122 
COMPS,ioos:station:USF.COMPS:FHP:1,2017-02-03T21:18:00Z,28.1530,-82.8010,-9.831,1111122 
COMPS,ioos:station:USF.COMPS:FHP:1,2017-02-03T21:24:00Z,28.1530,-82.8010,-9.826,1111122 
COMPS,ioos:station:USF.COMPS:FHP:1,2017-02-03T21:30:00Z,28.1530,-82.8010,-9.826,1111122 
COMPS,ioos:station:USF.COMPS:FHP:1,2017-02-03T21:36:00Z,28.1530,-82.8010,-9.826,1111122 
COMPS,ioos:station:USF.COMPS:FHP:1,2017-02-03T21:42:00Z,28.1530,-82.8010,-9.82,1111122 
COMPS,ioos:station:USF.COMPS:FHP:1,2017-02-03T21:48:00Z,28.1530,-82.8010,-9.823,1111122 
COMPS,ioos:station:USF.COMPS:FHP:1,2017-02-03T21:54:00Z,28.1530,-82.8010,-9.819,1111122 
COMPS,ioos:station:USF.COMPS:FHP:1,2017-02-03T22:00:00Z,28.1530,-82.8010,-9.817,1111122 
COMPS,ioos:station:USF.COMPS:FHP:1,2017-02-03T22:06:00Z,28.1530,-82.8010,-9.834,1111122 
COMPS,ioos:station:USF.COMPS:FHP:1,2017-02-03T22:12:00Z,28.1530,-82.8010,-9.838,1111122 
COMPS,ioos:station:USF.COMPS:FHP:1,2017-02-03T22:18:00Z,28.1530,-82.8010,-9.844,1111122 
COMPS,ioos:station:USF.COMPS:FHP:1,2017-02-03T22:24:00Z,28.1530,-82.8010,-9.854,1111122 
COMPS,ioos:station:USF.COMPS:FHP:1,2017-02-03T22:30:00Z,28.1530,-82.8010,-9.865,1111122 
COMPS,ioos:station:USF.COMPS:FHP:1,2017-02-03T22:36:00Z,28.1530,-82.8010,-9.875,1111122 
COMPS,ioos:station:USF.COMPS:FHP:1,2017-02-03T22:42:00Z,28.1530,-82.8010,-9.891,1111122 
COMPS,ioos:station:USF.COMPS:FHP:1,2017-02-03T22:48:00Z,28.1530,-82.8010,-9.898,1111122 
COMPS,ioos:station:USF.COMPS:FHP:1,2017-02-03T22:54:00Z,28.1530,-82.8010,-9.908,1111122 
COMPS,ioos:station:USF.COMPS:FHP:1,2017-02-03T23:00:00Z,28.1530,-82.8010,-9.915,1111122 
COMPS,ioos:station:USF.COMPS:FHP:1,2017-02-03T23:06:00Z,28.1530,-82.8010,-9.925,1111122 
COMPS,ioos:station:USF.COMPS:FHP:1,2017-02-03T23:12:00Z,28.1530,-82.8010,-9.939,1111122 
COMPS,ioos:station:USF.COMPS:FHP:1,2017-02-03T23:18:00Z,28.1530,-82.8010,-9.939,1111122 
COMPS,ioos:station:USF.COMPS:FHP:1,2017-02-03T23:30:00Z,28.1530,-82.8010,-9.96,1111122 
COMPS,ioos:station:USF.COMPS:FHP:1,2017-02-03T23:42:00Z,28.1530,-82.8010,-9.981,1111122 
COMPS,ioos:station:USF.COMPS:FHP:1,2017-02-03T23:48:00Z,28.1530,-82.8010,-9.99,1111122 
COMPS,ioos:station:USF.COMPS:FHP:1,2017-02-04T20:48:00Z,28.1530,-82.8010,-9.997,1111122 
COMPS,ioos:station:USF.COMPS:FHP:1,2017-02-04T21:00:00Z,28.1530,-82.8010,-9.99,1111122 
COMPS,ioos:station:USF.COMPS:FHP:1,2017-02-04T21:06:00Z,28.1530,-82.8010,-9.985,1111122 
COMPS,ioos:station:USF.COMPS:FHP:1,2017-02-04T21:12:00Z,28.1530,-82.8010,-9.98,1111122 
COMPS,ioos:station:USF.COMPS:FHP:1,2017-02-04T21:18:00Z,28.1530,-82.8010,-9.972,1111122 
COMPS,ioos:station:USF.COMPS:FHP:1,2017-02-04T21:24:00Z,28.1530,-82.8010,-9.963,1111122 
COMPS,ioos:station:USF.COMPS:FHP:1,2017-02-04T21:30:00Z,28.1530,-82.8010,-9.956,1111122 
COMPS,ioos:station:USF.COMPS:FHP:1,2017-02-04T21:36:00Z,28.1530,-82.8010,-9.943,1111122 
COMPS,ioos:station:USF.COMPS:FHP:1,2017-02-04T21:42:00Z,28.1530,-82.8010,-9.934,1111122 
COMPS,ioos:station:USF.COMPS:FHP:1,2017-02-04T21:48:00Z,28.1530,-82.8010,-9.919,1111122 
COMPS,ioos:station:USF.COMPS:FHP:1,2017-02-04T21:54:00Z,28.1530,-82.8010,-9.905,1111122 
COMPS,ioos:station:USF.COMPS:FHP:1,2017-02-04T22:00:00Z,28.1530,-82.8010,-9.894,1111122 
COMPS,ioos:station:USF.COMPS:FHP:1,2017-02-04T22:06:00Z,28.1530,-82.8010,-9.891,1111122 
COMPS,ioos:station:USF.COMPS:FHP:1,2017-02-04T22:12:00Z,28.1530,-82.8010,-9.885,1111122 
COMPS,ioos:station:USF.COMPS:FHP:1,2017-02-04T22:18:00Z,28.1530,-82.8010,-9.887,1111122 
COMPS,ioos:station:USF.COMPS:FHP:1,2017-02-04T22:24:00Z,28.1530,-82.8010,-9.878,1111122 
COMPS,ioos:station:USF.COMPS:FHP:1,2017-02-04T22:30:00Z,28.1530,-82.8010,-9.878,1111122 
COMPS,ioos:station:USF.COMPS:FHP:1,2017-02-04T22:36:00Z,28.1530,-82.8010,-9.876,1111122 
COMPS,ioos:station:USF.COMPS:FHP:1,2017-02-04T22:42:00Z,28.1530,-82.8010,-9.871,1111122 
COMPS,ioos:station:USF.COMPS:FHP:1,2017-02-04T22:48:00Z,28.1530,-82.8010,-9.873,1111122 
COMPS,ioos:station:USF.COMPS:FHP:1,2017-02-04T22:54:00Z,28.1530,-82.8010,-9.874,1111122 
COMPS,ioos:station:USF.COMPS:FHP:1,2017-02-04T23:00:00Z,28.1530,-82.8010,-9.876,1111122 
COMPS,ioos:station:USF.COMPS:FHP:1,2017-02-04T23:06:00Z,28.1530,-82.8010,-9.886,1111122 
COMPS,ioos:station:USF.COMPS:FHP:1,2017-02-04T23:12:00Z,28.1530,-82.8010,-9.895,1111122 
COMPS,ioos:station:USF.COMPS:FHP:1,2017-02-04T23:18:00Z,28.1530,-82.8010,-9.905,1111122 
COMPS,ioos:station:USF.COMPS:FHP:1,2017-02-04T23:24:00Z,28.1530,-82.8010,-9.917,1111122 
COMPS,ioos:station:USF.COMPS:FHP:1,2017-02-04T23:30:00Z,28.1530,-82.8010,-9.922,1111122 
COMPS,ioos:station:USF.COMPS:FHP:1,2017-02-04T23:36:00Z,28.1530,-82.8010,-9.931,1111122 
COMPS,ioos:station:USF.COMPS:FHP:1,2017-02-04T23:42:00Z,28.1530,-82.8010,-9.938,1111122 
COMPS,ioos:station:USF.COMPS:FHP:1,2017-02-04T23:48:00Z,28.1530,-82.8010,-9.948,1111122 
COMPS,ioos:station:USF.COMPS:FHP:1,2017-02-04T23:54:00Z,28.1530,-82.8010,-9.953,1111122 
COMPS,ioos:station:USF.COMPS:FHP:1,2017-02-05T00:00:00Z,28.1530,-82.8010,-9.963,1111122 
COMPS,ioos:station:USF.COMPS:FHP:1,2017-02-05T00:06:00Z,28.1530,-82.8010,-9.969,1111122 
COMPS,ioos:station:USF.COMPS:FHP:1,2017-02-05T00:12:00Z,28.1530,-82.8010,-9.973,1111122 
COMPS,ioos:station:USF.COMPS:FHP:1,2017-02-05T00:18:00Z,28.1530,-82.8010,-9.985,1111122 
COMPS,ioos:station:USF.COMPS:FHP:1,2017-02-05T00:24:00Z,28.1530,-82.8010,-9.989,1111122 
COMPS,ioos:station:USF.COMPS:FHP:1,2017-02-05T21:18:00Z,28.1530,-82.8010,-9.992,1111122 
COMPS,ioos:station:USF.COMPS:FHP:1,2017-02-05T21:24:00Z,28.1530,-82.8010,-9.989,1111122 
COMPS,ioos:station:USF.COMPS:FHP:1,2017-02-05T21:30:00Z,28.1530,-82.8010,-9.987,1111122 
COMPS,ioos:station:USF.COMPS:FHP:1,2017-02-05T21:36:00Z,28.1530,-82.8010,-9.98,1111122 
COMPS,ioos:station:USF.COMPS:FHP:1,2017-02-05T21:42:00Z,28.1530,-82.8010,-9.976,1111122 
COMPS,ioos:station:USF.COMPS:FHP:1,2017-02-05T21:48:00Z,28.1530,-82.8010,-9.973,1111122 
COMPS,ioos:station:USF.COMPS:FHP:1,2017-02-05T21:54:00Z,28.1530,-82.8010,-9.968,1111122 
COMPS,ioos:station:USF.COMPS:FHP:1,2017-02-05T22:00:00Z,28.1530,-82.8010,-9.961,1111122 
COMPS,ioos:station:USF.COMPS:FHP:1,2017-02-05T22:06:00Z,28.1530,-82.8010,-9.959,1111122 
COMPS,ioos:station:USF.COMPS:FHP:1,2017-02-05T22:12:00Z,28.1530,-82.8010,-9.948,1111122 
COMPS,ioos:station:USF.COMPS:FHP:1,2017-02-05T22:18:00Z,28.1530,-82.8010,-9.941,1111122 
COMPS,ioos:station:USF.COMPS:FHP:1,2017-02-05T22:24:00Z,28.1530,-82.8010,-9.935,1111122 
COMPS,ioos:station:USF.COMPS:FHP:1,2017-02-05T22:30:00Z,28.1530,-82.8010,-9.933,1111122 
COMPS,ioos:station:USF.COMPS:FHP:1,2017-02-05T22:36:00Z,28.1530,-82.8010,-9.923,1111122 
COMPS,ioos:station:USF.COMPS:FHP:1,2017-02-05T22:42:00Z,28.1530,-82.8010,-9.934,1111122 
COMPS,ioos:station:USF.COMPS:FHP:1,2017-02-05T22:48:00Z,28.1530,-82.8010,-9.929,1111122 
COMPS,ioos:station:USF.COMPS:FHP:1,2017-02-05T22:54:00Z,28.1530,-82.8010,-9.929,1111122 
COMPS,ioos:station:USF.COMPS:FHP:1,2017-02-05T23:00:00Z,28.1530,-82.8010,-9.927,1111122 
COMPS,ioos:station:USF.COMPS:FHP:1,2017-02-05T23:06:00Z,28.1530,-82.8010,-9.921,1111122 
COMPS,ioos:station:USF.COMPS:FHP:1,2017-02-05T23:12:00Z,28.1530,-82.8010,-9.924,1111122 
COMPS,ioos:station:USF.COMPS:FHP:1,2017-02-05T23:18:00Z,28.1530,-82.8010,-9.92,1111122 
COMPS,ioos:station:USF.COMPS:FHP:1,2017-02-05T23:24:00Z,28.1530,-82.8010,-9.919,1111122 
COMPS,ioos:station:USF.COMPS:FHP:1,2017-02-05T23:30:00Z,28.1530,-82.8010,-9.913,1111122 
COMPS,ioos:station:USF.COMPS:FHP:1,2017-02-05T23:36:00Z,28.1530,-82.8010,-9.913,1111122 
COMPS,ioos:station:USF.COMPS:FHP:1,2017-02-05T23:42:00Z,28.1530,-82.8010,-9.903,1111122 
COMPS,ioos:station:USF.COMPS:FHP:1,2017-02-05T23:48:00Z,28.1530,-82.8010,-9.905,1111122 
COMPS,ioos:station:USF.COMPS:FHP:1,2017-02-05T23:54:00Z,28.1530,-82.8010,-9.912,1111122 
COMPS,ioos:station:USF.COMPS:FHP:1,2017-02-06T00:00:00Z,28.1530,-82.8010,-9.905,1111122 
COMPS,ioos:station:USF.COMPS:FHP:1,2017-02-06T00:06:00Z,28.1530,-82.8010,-9.915,1111122 
COMPS,ioos:station:USF.COMPS:FHP:1,2017-02-06T00:12:00Z,28.1530,-82.8010,-9.913,1111122 
COMPS,ioos:station:USF.COMPS:FHP:1,2017-02-06T00:18:00Z,28.1530,-82.8010,-9.914,1111122 
COMPS,ioos:station:USF.COMPS:FHP:1,2017-02-06T00:24:00Z,28.1530,-82.8010,-9.917,1111122 
COMPS,ioos:station:USF.COMPS:FHP:1,2017-02-06T00:36:00Z,28.1530,-82.8010,-9.923,1111122 
COMPS,ioos:station:USF.COMPS:FHP:1,2017-02-06T00:42:00Z,28.1530,-82.8010,-9.929,1111122 
COMPS,ioos:station:USF.COMPS:FHP:1,2017-02-06T00:48:00Z,28.1530,-82.8010,-9.933,1111122 
COMPS,ioos:station:USF.COMPS:FHP:1,2017-02-06T00:54:00Z,28.1530,-82.8010,-9.944,1111122 
COMPS,ioos:station:USF.COMPS:FHP:1,2017-02-06T01:00:00Z,28.1530,-82.8010,-9.95,1111122 
COMPS,ioos:station:USF.COMPS:FHP:1,2017-02-06T01:06:00Z,28.1530,-82.8010,-9.956,1111122 
COMPS,ioos:station:USF.COMPS:FHP:1,2017-02-06T01:12:00Z,28.1530,-82.8010,-9.96,1111122 
COMPS,ioos:station:USF.COMPS:FHP:1,2017-02-06T01:18:00Z,28.1530,-82.8010,-9.963,1111122 
COMPS,ioos:station:USF.COMPS:FHP:1,2017-02-06T01:24:00Z,28.1530,-82.8010,-9.973,1111122 
COMPS,ioos:station:USF.COMPS:FHP:1,2017-02-06T01:30:00Z,28.1530,-82.8010,-9.984,1111122 
COMPS,ioos:station:USF.COMPS:FHP:1,2017-02-06T01:36:00Z,28.1530,-82.8010,-9.997,1111122 
COMPS,ioos:station:USF.COMPS:FHP:1,2017-02-06T21:12:00Z,28.1530,-82.8010,-9.997,1111122 
COMPS,ioos:station:USF.COMPS:FHP:1,2017-02-06T21:18:00Z,28.1530,-82.8010,-9.988,1111122 
COMPS,ioos:station:USF.COMPS:FHP:1,2017-02-06T21:24:00Z,28.1530,-82.8010,-9.977,1111122 
COMPS,ioos:station:USF.COMPS:FHP:1,2017-02-06T21:30:00Z,28.1530,-82.8010,-9.966,1111122 